Tiempo cada hora Catu

Hoy, 17 Abril, Sábado

Tiempo Temperatura Precipitaciones Viento Presión Humedad
00:00 +23°C° 0 mm 1 mps 752 mmHg 95%
01:00 +23°C° 0 mm 1 mps 751 mmHg 94%
02:00 +22°C° 0 mm 1 mps 751 mmHg 94%
03:00 +23°C° 0 mm 1 mps 751 mmHg 93%
04:00 +22°C° 0 mm 1 mps 751 mmHg 93%
05:00 +22°C° 0 mm 1 mps 751 mmHg 93%
06:00 +22°C° 0 mm 1 mps 751 mmHg 93%
07:00 +25°C° 0 mm 1 mps 752 mmHg 81%
08:00 +27°C° 0 mm 2 mps 752 mmHg 69%
09:00 +30°C° 0 mm 2 mps 753 mmHg 58%
10:00 +31°C° 0.2 mm 2 mps 752 mmHg 56%
11:00 +31°C° 0.2 mm 3 mps 752 mmHg 54%
12:00 +33°C° 0.2 mm 3 mps 751 mmHg 52%
13:00 +33°C° 0.3 mm 3 mps 750 mmHg 55%
14:00 +31°C° 0.3 mm 3 mps 750 mmHg 58%
15:00 +31°C° 0.3 mm 3 mps 750 mmHg 60%
16:00 +29°C° 0.1 mm 3 mps 750 mmHg 69%
17:00 +27°C° 0.1 mm 2 mps 750 mmHg 77%
18:00 +25°C° 0.1 mm 2 mps 751 mmHg 86%
19:00 +25°C° 0 mm 1 mps 751 mmHg 89%
20:00 +24°C° 0 mm 1 mps 751 mmHg 91%
21:00 +24°C° 0 mm 1 mps 752 mmHg 94%
22:00 +24°C° 0 mm 1 mps 751 mmHg 94%
23:00 +24°C° 0 mm 1 mps 751 mmHg 95%

Mañana, 18 Abril, Domingo

Tiempo Temperatura Precipitaciones Viento Presión Humedad
00:00 +24°C° 0 mm 1 mps 751 mmHg 95%
01:00 +23°C° 0.2 mm 1 mps 751 mmHg 96%
02:00 +21°C° 0.2 mm 0 mps 751 mmHg 96%
03:00 +21°C° 0.2 mm 0 mps 750 mmHg 97%
04:00 +21°C° 0.1 mm 0 mps 751 mmHg 97%
05:00 +21°C° 0.1 mm 0 mps 751 mmHg 97%
06:00 +21°C° 0.1 mm 0 mps 751 mmHg 97%
07:00 +23°C° 0.2 mm 0 mps 752 mmHg 88%
08:00 +27°C° 0.2 mm 1 mps 752 mmHg 79%
09:00 +29°C° 0.2 mm 1 mps 752 mmHg 71%
10:00 +31°C° 0.2 mm 2 mps 752 mmHg 64%
11:00 +32°C° 0.2 mm 2 mps 751 mmHg 58%
12:00 +34°C° 0.2 mm 2 mps 751 mmHg 51%
13:00 +32°C° 0.1 mm 2 mps 750 mmHg 56%
14:00 +31°C° 0.1 mm 3 mps 750 mmHg 61%
15:00 +29°C° 0.1 mm 3 mps 749 mmHg 67%
16:00 +28°C° 0 mm 3 mps 749 mmHg 71%
17:00 +27°C° 0 mm 2 mps 750 mmHg 76%
18:00 +26°C° 0 mm 2 mps 750 mmHg 81%
19:00 +25°C° 0 mm 2 mps 750 mmHg 85%
20:00 +25°C° 0 mm 2 mps 751 mmHg 90%
21:00 +24°C° 0 mm 1 mps 751 mmHg 95%
22:00 +24°C° 0 mm 1 mps 751 mmHg 96%
23:00 +24°C° 0 mm 1 mps 751 mmHg 96%

Pasado mañana, 19 Abril, Lunes

Tiempo Temperatura Precipitaciones Viento Presión Humedad
00:00 +24°C° 0 mm 1 mps 751 mmHg 97%
01:00 +23°C° 0 mm 1 mps 751 mmHg 97%
02:00 +23°C° 0 mm 1 mps 750 mmHg 97%
03:00 +23°C° 0 mm 1 mps 750 mmHg 97%
04:00 +23°C° 0 mm 1 mps 750 mmHg 97%
05:00 +23°C° 0 mm 1 mps 751 mmHg 97%
06:00 +23°C° 0 mm 1 mps 751 mmHg 97%
07:00 +26°C° 0 mm 1 mps 751 mmHg 85%
08:00 +28°C° 0 mm 1 mps 752 mmHg 73%
09:00 +31°C° 0 mm 1 mps 752 mmHg 61%
10:00 +31°C° 0.1 mm 2 mps 752 mmHg 59%
11:00 +32°C° 0.1 mm 2 mps 751 mmHg 57%
12:00 +32°C° 0.1 mm 2 mps 750 mmHg 55%
13:00 +32°C° 0.1 mm 2 mps 750 mmHg 57%
14:00 +31°C° 0.1 mm 2 mps 749 mmHg 59%
15:00 +31°C° 0.1 mm 2 mps 749 mmHg 62%
16:00 +30°C° 0 mm 2 mps 749 mmHg 69%
17:00 +28°C° 0 mm 2 mps 749 mmHg 76%
18:00 +27°C° 0 mm 2 mps 749 mmHg 83%
19:00 +26°C° 0 mm 2 mps 750 mmHg 87%
20:00 +25°C° 0 mm 2 mps 750 mmHg 91%
21:00 +25°C° 0 mm 1 mps 751 mmHg 94%
22:00 +24°C° 0.1 mm 1 mps 751 mmHg 96%
23:00 +24°C° 0.1 mm 1 mps 750 mmHg 97%

20 Abril, Martes

Tiempo Temperatura Precipitaciones Viento Presión Humedad
00:00 +24°C° 0.1 mm 1 mps 750 mmHg 98%
01:00 +24°C° 0.4 mm 1 mps 750 mmHg 98%
02:00 +24°C° 0.4 mm 1 mps 750 mmHg 98%
03:00 +24°C° 0.4 mm 1 mps 749 mmHg 98%
04:00 +24°C° 0.4 mm 1 mps 750 mmHg 98%
05:00 +24°C° 0.4 mm 1 mps 750 mmHg 98%
06:00 +24°C° 0.4 mm 1 mps 750 mmHg 98%
07:00 +25°C° 0.9 mm 1 mps 751 mmHg 93%
08:00 +26°C° 0.9 mm 1 mps 751 mmHg 88%
09:00 +28°C° 0.9 mm 2 mps 751 mmHg 83%
10:00 +29°C° 1.1 mm 1 mps 751 mmHg 78%
11:00 +30°C° 1.1 mm 1 mps 751 mmHg 74%
12:00 +31°C° 1.1 mm 1 mps 750 mmHg 70%
13:00 +29°C° 3.8 mm 1 mps 750 mmHg 78%
14:00 +27°C° 3.8 mm 1 mps 749 mmHg 87%
15:00 +25°C° 3.8 mm 2 mps 749 mmHg 95%
16:00 +25°C° 2 mm 1 mps 749 mmHg 96%
17:00 +24°C° 2 mm 1 mps 750 mmHg 97%
18:00 +24°C° 2 mm 1 mps 751 mmHg 97%
19:00 +24°C° 0 mm 1 mps 751 mmHg 97%
20:00 +24°C° 0 mm 1 mps 752 mmHg 97%
21:00 +24°C° 0 mm 1 mps 752 mmHg 97%
22:00 +22°C° 0.2 mm 0 mps 752 mmHg 97%
23:00 +22°C° 0.2 mm 0 mps 752 mmHg 97%

21 Abril, Miércoles

Tiempo Temperatura Precipitaciones Viento Presión Humedad
00:00 +22°C° 0.2 mm 0 mps 751 mmHg 97%
01:00 +22°C° 0 mm 0 mps 751 mmHg 97%
02:00 +21°C° 0 mm 0 mps 751 mmHg 97%
03:00 +23°C° 0 mm 1 mps 750 mmHg 97%
04:00 +23°C° 0 mm 1 mps 751 mmHg 97%
05:00 +23°C° 0 mm 1 mps 751 mmHg 97%
06:00 +23°C° 0 mm 1 mps 751 mmHg 97%
07:00 +25°C° 0 mm 1 mps 752 mmHg 86%
08:00 +27°C° 0 mm 1 mps 752 mmHg 76%
09:00 +30°C° 0 mm 1 mps 752 mmHg 66%
10:00 +32°C° 0 mm 1 mps 752 mmHg 59%
11:00 +32°C° 0 mm 0 mps 751 mmHg 51%
12:00 +33°C° 0 mm 0 mps 750 mmHg 44%
13:00 +34°C° 0.1 mm 1 mps 750 mmHg 52%
14:00 +32°C° 0.1 mm 1 mps 749 mmHg 60%
15:00 +30°C° 0.1 mm 2 mps 749 mmHg 69%
16:00 +28°C° 0.1 mm 2 mps 749 mmHg 75%
17:00 +27°C° 0.1 mm 2 mps 750 mmHg 82%
18:00 +26°C° 0.1 mm 2 mps 750 mmHg 88%
19:00 +26°C° 0 mm 2 mps 750 mmHg 89%
20:00 +26°C° 0 mm 2 mps 751 mmHg 90%
21:00 +26°C° 0 mm 1 mps 751 mmHg 91%
22:00 +25°C° 0.3 mm 1 mps 751 mmHg 91%
23:00 +25°C° 0.3 mm 1 mps 751 mmHg 92%

22 Abril, Jueves

Tiempo Temperatura Precipitaciones Viento Presión Humedad
00:00 +23°C° 0.3 mm 0 mps 751 mmHg 93%
01:00 +23°C° 0.5 mm 0 mps 751 mmHg 94%
02:00 +23°C° 0.5 mm 0 mps 751 mmHg 95%
03:00 +24°C° 0.5 mm 1 mps 751 mmHg 96%
04:00 +25°C° 0.1 mm 1 mps 751 mmHg 96%
05:00 +23°C° 0.1 mm 0 mps 752 mmHg 96%
06:00 +23°C° 0.1 mm 0 mps 752 mmHg 96%
07:00 +23°C° 0.3 mm 0 mps 752 mmHg 94%
08:00 +26°C° 0.3 mm 1 mps 753 mmHg 92%
09:00 +26°C° 0.3 mm 1 mps 753 mmHg 90%
10:00 +27°C° 0.7 mm 1 mps 753 mmHg 89%
11:00 +27°C° 0.7 mm 1 mps 752 mmHg 89%
12:00 +27°C° 0.7 mm 1 mps 752 mmHg 89%
13:00 +28°C° 0.3 mm 1 mps 751 mmHg 84%
14:00 +28°C° 0.3 mm 2 mps 751 mmHg 79%
15:00 +29°C° 0.3 mm 2 mps 750 mmHg 73%
16:00 +28°C° 0.1 mm 2 mps 750 mmHg 78%
17:00 +26°C° 0.1 mm 2 mps 751 mmHg 83%
18:00 +25°C° 0.1 mm 1 mps 751 mmHg 88%
19:00 +25°C° 0 mm 1 mps 751 mmHg 91%
20:00 +24°C° 0 mm 1 mps 752 mmHg 93%
21:00 +24°C° 0 mm 1 mps 752 mmHg 95%
22:00 +24°C° 0 mm 1 mps 752 mmHg 96%
23:00 +24°C° 0 mm 1 mps 752 mmHg 97%
Mostrar más

Necesitamos Su Consentimiento

Meteoprog y nuestros Proveedores de Servicios pueden almacenar y acceder a sus datos personales como cookies, identificadores de dispositivo u otras tecnologías similares de su dispositivo y procesar dichos datos para personalizar contenido y anuncios, además de ofrecer funciones de redes sociales y analizar el tráfico.

  • Almacenar y/o acceder a información en su dispositivo

    Se puede almacenar o acceder a cookies, identificadores de dispositivo u otra información de su dispositivo para los fines anteriormente indicados.

  • Anuncios y contenido personalizados, medición de anuncios y contenido, percepciones del público, y desarrollo de productos

    Los anuncios y el contenido pueden personalizarse en base a su perfil. Se pueden añadir más datos para personalizar mejor los anuncios y contenidos. Se puede medir el rendimiento de los anuncios y contenidos. Se puede obtener la percepción sobre el público que ha visto los anuncios y contenidos. Dichos datos pueden usarse para desarrollar o mejorar la experiencia del usuario, sistemas y software.

Al hacer clic en ‘Estoy De Acuerdo’ usted permitirá el uso de las cookies, identificadores de dispositivo, balizas web u otras tecnologías similares indicadas. Su configuración puede cambiarse desde el navegador de su dispositivo.

Para ciertos fines, los intereses legítimos pueden ser considerados por encima del consentimiento. Puede leer más sobre ello en nuestra Política de Privacidad y Cookies.